Flag for Poland Weather past 2 weeks in Białystok, Poland

Now
56 °F

Passing clouds.


Feels Like: 56 °F
Forecast: 53 / 64 °F
Wind: 2 mph from East

Location: Bialystok


UV Index: 0 (Low)

Visibility: 14 mi


Pressure: 30.09 "Hg

Humidity: 67%

Dew point: 45 °F

Location of BiałystokLocation

Historic Weather in Białystok

°F

Białystok temperature yesterday

Maximum temperature yesterday: 70 °F (at 5:00 PM)
Minimum temperature yesterday: 45 °F (at 4:00 AM)
Average temperature yesterday: 60 °F

Past Weeks' High & Low Weather Summary

 TemperatureHumidityPressure
High70 °F (Apr 19, 5:00 PM)98% (Apr 10, 1:00 AM)30.37 "Hg (Apr 10, 1:00 AM)
Low26 °F (Apr 6, 4:00 AM)22% (Apr 5, 3:00 PM)29.58 "Hg (Apr 14, 7:00 PM)
Average45 °F73%30.02 "Hg
* Reported Apr 4 10:00 PM — Apr 19 10:00 PM, Białystok, Weather by CustomWeather, © 2014

Note: Actual official high and low records may vary slightly from our data, if they occured in-between our weather recording intervals... More about our weather records

Advertising

Historic Weather Conditions — Data for Previous 24 hours

 ConditionsComfort  
Time TempWeatherWind HumidityBarometerVisibility
10:00 PM
Apr 19
59 °FPassing clouds.2 mph56%30.08 "Hg16 mi
9:00 PM63 °FPassing clouds.3 mph46%30.06 "Hg17 mi
8:00 PM65 °FPassing clouds.3 mph41%30.05 "Hg19 mi
7:00 PM67 °FPartly sunny.5 mph36%30.04 "Hg22 mi
6:00 PM69 °FPartly sunny.7 mph34%30.03 "Hg19 mi
5:00 PM70 °FPartly sunny.6 mph35%30.04 "Hg25 mi
4:00 PM69 °FPartly sunny.7 mph34%30.05 "Hg19 mi
3:00 PM69 °FPartly sunny.8 mph37%30.06 "Hg17 mi
2:00 PM69 °FPartly sunny.8 mph39%30.08 "Hg16 mi
1:00 PM69 °FScattered clouds.8 mph41%30.09 "Hg16 mi
12:00 PM68 °FPassing clouds.7 mph44%30.10 "Hg14 mi
11:00 AM66 °FPassing clouds.6 mph51%30.11 "Hg15 mi
10:00 AM65 °FPassing clouds.5 mph50%30.11 "Hg12 mi
9:00 AM60 °FSunny.3 mph62%30.11 "Hg16 mi
8:00 AM55 °FSunny.3 mph74%30.11 "Hg9 mi
7:00 AM50 °FSunny.3 mph87%30.11 "Hg6 mi
6:00 AM47 °FPassing clouds.2 mph92%30.10 "Hg6 mi
5:00 AM48 °FClear.2 mph92%30.09 "Hg6 mi
4:00 AM45 °FClear.1 mph87%30.08 "Hg6 mi
3:00 AM50 °FClear.2 mph87%30.07 "Hg7 mi
2:00 AM51 °FClear.3 mph85%30.05 "Hg8 mi
1:00 AM51 °FClear.3 mph84%30.03 "Hg9 mi
12:00 AM53 °FClear.3 mph81%30.01 "Hg9 mi
Weather by CustomWeather, © 2014

See weather overview